Weather History for KADF - March, 2014

Change the Weather History Date:

Thursday, March 27, 2014

  Actual Average Record
Temperature  
Mean Temperature 58 °F -  
Max Temperature 64 °F - - ()
Min Temperature 52 °F - - ()
Degree Days  
Heating Degree Days 7    
Growing Degree Days 8 (Base 50)    
Moisture  
Dew Point 54 °F    
Average Humidity 81    
Maximum Humidity 96    
Minimum Humidity 49    
Precipitation  
Precipitation 0.25 in - - ()
Sea Level Pressure  
Sea Level Pressure 29.89 in    
Wind  
Wind Speed 10 mph (South)    
Max Wind Speed 17 mph    
Max Gust Speed -    
Visibility 8 miles    
Events Rain , Thunderstorm    
T = Trace of Precipitation, MM = Missing Value Source: NWS Daily Summary

Daily Weather History Graph

Daily Weather History Graph

Search for Another Location

Airport or City:

Trip Planner

Search our weather history database for the weather conditions in past years. The results will help you decide how hot, cold, wet, or windy it might be!

Date:

Astronomy

Mar. 27, 2014 Rise Set
Actual Time 7:06 AM CDT 7:29 PM CDT
Civil Twilight 6:41 AM CDT 7:54 PM CDT
Nautical Twilight 6:11 AM CDT 8:23 PM CDT
Astronomical Twilight 5:42 AM CDT 8:53 PM CDT
Moon 4:49 AM CDT 4:25 PM CDT
Length of Visible Light 13h 13m
Length of Day
12h 22m
Waning Crescent, 13% of the Moon is Illuminated
Mar 27
Waning Crescent
Mar 30
New
Apr 7
First Quarter
Apr 15
Full
Apr 22
Last Quarter

Hourly Weather History & Observations

Time (CDT) Temp. Dew Point Humidity Pressure Visibility Wind Dir Wind Speed Gust Speed Precip Events Conditions
12:56 AM 54.0 °F 36.9 °F 52% 30.08 in 10.0 mi South 8.1 mph - N/A   Scattered Clouds
1:56 AM 54.0 °F 34.9 °F 49% 30.06 in 10.0 mi South 10.4 mph - N/A   Mostly Cloudy
2:56 AM 54.0 °F 36.9 °F 52% 30.04 in 10.0 mi South 9.2 mph - N/A   Overcast
3:56 AM 54.0 °F 37.9 °F 55% 30.04 in 10.0 mi South 9.2 mph - N/A   Overcast
4:56 AM 52.9 °F 38.8 °F 59% 30.02 in 10.0 mi South 8.1 mph - N/A   Overcast
5:27 AM 53.6 °F 39.2 °F 58% 29.96 in 10.0 mi South 8.1 mph - N/A   Overcast
5:56 AM 52.9 °F 39.9 °F 61% 30.00 in 10.0 mi South 5.8 mph - N/A   Overcast
6:56 AM 52.0 °F 41.0 °F 66% 30.01 in 10.0 mi South 8.1 mph - N/A   Overcast
7:56 AM 52.9 °F 43.0 °F 69% 30.01 in 10.0 mi South 8.1 mph - N/A   Overcast
8:56 AM 54.9 °F 46.9 °F 75% 30.00 in 10.0 mi South 11.5 mph - N/A   Overcast
9:56 AM 56.8 °F 48.9 °F 75% 29.97 in 10.0 mi South 17.3 mph - N/A   Overcast
10:56 AM 59.9 °F 52.0 °F 75% 29.96 in 10.0 mi South 17.3 mph - N/A   Mostly Cloudy
11:37 AM 60.8 °F 51.8 °F 72% 29.90 in 10.0 mi South 11.5 mph - N/A   Mostly Cloudy
11:56 AM 61.9 °F 52.9 °F 72% 29.92 in 10.0 mi SSE 15.0 mph - N/A   Overcast
12:19 PM 60.8 °F 53.6 °F 77% 29.86 in 10.0 mi South 17.3 mph - 0.00 in Rain , Thunderstorm Light Thunderstorms and Rain
12:27 PM 60.8 °F 55.4 °F 82% 29.86 in 4.0 mi South 12.7 mph - 0.02 in Rain , Thunderstorm Light Thunderstorms and Rain
12:56 PM 59.9 °F 56.8 °F 90% 29.87 in 8.0 mi South 11.5 mph - 0.04 in Rain , Thunderstorm Light Thunderstorms and Rain
1:11 PM 60.8 °F 57.2 °F 88% 29.82 in 1.8 mi South 11.5 mph - 0.07 in Rain , Thunderstorm Heavy Thunderstorms and Rain
1:19 PM 60.8 °F 57.2 °F 88% 29.83 in 1.5 mi South 8.1 mph - 0.13 in Rain , Thunderstorm Light Thunderstorms and Rain
1:29 PM 60.8 °F 57.2 °F 88% 29.82 in 3.0 mi South 10.4 mph - 0.16 in Rain , Thunderstorm Light Thunderstorms and Rain
1:37 PM 60.8 °F 57.2 °F 88% 29.82 in 8.0 mi South 9.2 mph - 0.16 in Rain , Thunderstorm Light Thunderstorms and Rain
1:56 PM 59.9 °F 57.9 °F 93% 29.85 in 9.0 mi South 11.5 mph - 0.17 in Rain , Thunderstorm Light Thunderstorms and Rain
2:05 PM 60.8 °F 57.2 °F 88% 29.81 in 6.0 mi South 9.2 mph - 0.01 in Rain , Thunderstorm Light Thunderstorms and Rain
2:35 PM 60.8 °F 59.0 °F 94% 29.80 in 9.0 mi SSW 6.9 mph - 0.01 in   Overcast
2:56 PM 61.9 °F 59.0 °F 90% 29.83 in 8.0 mi SSW 6.9 mph - 0.01 in Rain Light Rain
3:56 PM 63.9 °F 59.9 °F 87% 29.83 in 9.0 mi SSW 8.1 mph - N/A   Overcast
4:21 PM 64.4 °F 60.8 °F 88% 29.78 in 2.5 mi SSW 15.0 mph - 0.02 in Rain Rain
4:38 PM 64.4 °F 62.6 °F 94% 29.78 in 3.0 mi SSW 11.5 mph - 0.03 in Rain Light Rain
4:56 PM 63.9 °F 61.9 °F 93% 29.83 in 5.0 mi SSW 9.2 mph - 0.03 in Rain Light Rain
5:56 PM 63.9 °F 61.9 °F 93% 29.83 in 10.0 mi South 12.7 mph - 0.00 in   Mostly Cloudy
6:14 PM 64.4 °F 62.6 °F 94% 29.79 in 10.0 mi South 11.5 mph - N/A   Overcast
6:37 PM 64.4 °F 62.6 °F 94% 29.79 in 9.0 mi South 13.8 mph - N/A   Mostly Cloudy
6:56 PM 63.9 °F 61.9 °F 93% 29.83 in 8.0 mi South 11.5 mph - N/A   Overcast
7:56 PM 63.9 °F 61.9 °F 93% 29.84 in 9.0 mi South 9.2 mph - N/A   Overcast
8:29 PM 64.4 °F 62.6 °F 94% 29.80 in 10.0 mi South 8.1 mph - 0.00 in   Overcast
8:56 PM 63.9 °F 61.9 °F 93% 29.86 in 10.0 mi SSW 4.6 mph - 0.00 in   Overcast
9:56 PM 63.9 °F 61.9 °F 93% 29.88 in 10.0 mi SSE 5.8 mph - N/A   Overcast
10:56 PM 63.9 °F 61.9 °F 93% 29.88 in 10.0 mi South 4.6 mph - N/A   Overcast
11:56 PM 63.0 °F 61.9 °F 96% 29.87 in 10.0 mi South 5.8 mph - N/A   Overcast